Tracking 19193 objects as of 23-Jun-2018
HD Live streaming from Space Station
objects crossing your sky now

FENGYUN 1C DEB

Track FENGYUN 1C DEB now!
10-day predictions


NORAD ID: 31345
Int'l Code: 1999-025BQZ
Perigee: 838.4 km
Apogee: 968.0 km
Inclination: 98.1 °
Period: 102.9 minutes
Semi major axis: 7274 km
RCS: 0.0093 m2 (small)
Launch date: May 10, 1999
Source: People's Republic of China (PRC)
Launch site: Taiyaun Space Center, China (TSC)

Note: This is SATELLITE DEBRIS
aabbcc
Your satellite tracking list
Your tracking list is empty




NASA's NSSDC Master Catalog

Two Line Element Set (TLE):
1 31345U 99025BQZ 18171.54832632 +.00000462 +00000-0 +33209-3 0  9994
2 31345 098.1412 080.5141 0089043 302.5229 056.7357 13.99340566571898
Source of the keplerian elements: AFSPC